Location: Beuvrequen
(50.8014°N, 1.6652°E)
Time: 21:24:19
(UTC+00:00)

CZ-2C R/B - Pass Details

Date: 16 October 2021
Orbit: 784 x 871 km, 98.2° (Epoch: 05 December)

Event Time Altitude Azimuth Distance (km) Brightness Sun altitude
Rises 19:27:13 0° 8° (N) 3,473 6.0 -24.1°
Reaches altitude 10° 19:29:48 10° 360° (N) 2,532 5.4 -24.5°
Maximum altitude 19:34:47 33° 298° (WNW) 1,418 4.4 -25.2°
Drops below altitude 10° 19:39:43 10° 236° (SW) 2,503 5.6 -26.0°
Sets 19:42:16 0° 227° (SW) 3,427 6.2 -26.4°
